Time,TemperatureF,DewpointF,PressureIn,WindDirection,WindDirectionDegrees,WindSpeedMPH,WindSpeedGustMPH,Humidity,HourlyPrecipIn,Conditions,Clouds,dailyrainin,SoftwareType,DateUTC
2013-09-21 00:10:00,52.7,51.0,29.93,NW,309,0.0,0.0,92,0.00,,,0.00,weatherlink.com 1.10,2013-09-21 05:10:00,
2013-09-21 00:25:00,52.2,50.0,29.93,NW,308,0.0,0.0,92,0.00,,,0.00,weatherlink.com 1.10,2013-09-21 05:25:00,
2013-09-21 00:40:00,52.0,50.0,29.93,NW,309,0.0,0.0,93,0.00,,,0.00,weatherlink.com 1.10,2013-09-21 05:40:00,
2013-09-21 00:55:00,52.0,50.0,29.93,NW,308,0.0,0.0,94,0.00,,,0.00,weatherlink.com 1.10,2013-09-21 05:55:00,
2013-09-21 01:11:00,51.7,50.0,29.93,NW,309,0.0,0.0,94,0.00,,,0.00,weatherlink.com 1.10,2013-09-21 06:11:00,
2013-09-21 01:26:00,51.5,50.0,29.94,NW,309,0.0,0.0,94,0.00,,,0.00,weatherlink.com 1.10,2013-09-21 06:26:00,
2013-09-21 01:41:00,51.1,50.0,29.94,NW,308,0.0,0.0,94,0.00,,,0.00,weatherlink.com 1.10,2013-09-21 06:41:00,
2013-09-21 01:56:00,50.9,49.0,29.94,NW,308,0.0,0.0,94,0.00,,,0.00,weatherlink.com 1.10,2013-09-21 06:56:00,
2013-09-21 02:11:00,50.7,49.0,29.95,NW,307,0.0,0.0,94,0.00,,,0.00,weatherlink.com 1.10,2013-09-21 07:11:00,
2013-09-21 02:26:00,50.4,49.0,29.94,NW,309,0.0,0.0,94,0.00,,,0.00,weatherlink.com 1.10,2013-09-21 07:26:00,
2013-09-21 02:41:00,50.3,49.0,29.94,NW,309,0.0,0.0,95,0.00,,,0.00,weatherlink.com 1.10,2013-09-21 07:41:00,
2013-09-21 02:56:00,50.2,49.0,29.94,NW,309,0.0,0.0,95,0.00,,,0.00,weatherlink.com 1.10,2013-09-21 07:56:00,
2013-09-21 03:11:00,50.1,49.0,29.94,NW,309,0.0,0.0,95,0.00,,,0.00,weatherlink.com 1.10,2013-09-21 08:11:00,
2013-09-21 03:26:00,50.1,49.0,29.94,NW,309,0.0,0.0,95,0.00,,,0.00,weatherlink.com 1.10,2013-09-21 08:26:00,
2013-09-21 03:41:00,50.1,49.0,29.94,NW,309,0.0,0.0,95,0.00,,,0.00,weatherlink.com 1.10,2013-09-21 08:41:00,
2013-09-21 03:56:00,49.5,48.0,29.94,NW,309,0.0,0.0,95,0.00,,,0.00,weatherlink.com 1.10,2013-09-21 08:56:00,
2013-09-21 04:11:00,49.5,48.0,29.94,NW,309,0.0,0.0,96,0.00,,,0.00,weatherlink.com 1.10,2013-09-21 09:11:00,
2013-09-21 04:26:00,49.3,48.0,29.95,NW,309,0.0,0.0,96,0.00,,,0.00,weatherlink.com 1.10,2013-09-21 09:26:00,
2013-09-21 04:41:00,49.1,48.0,29.95,NW,309,0.0,0.0,96,0.00,,,0.00,weatherlink.com 1.10,2013-09-21 09:41:00,
2013-09-21 04:56:00,49.2,48.0,29.95,NW,309,0.0,0.0,96,0.00,,,0.00,weatherlink.com 1.10,2013-09-21 09:56:00,
2013-09-21 05:11:00,48.9,48.0,29.96,NW,309,0.0,0.0,96,0.00,,,0.00,weatherlink.com 1.10,2013-09-21 10:11:00,
2013-09-21 05:26:00,48.9,48.0,29.96,NW,309,0.0,0.0,96,0.00,,,0.00,weatherlink.com 1.10,2013-09-21 10:26:00,
2013-09-21 05:41:00,48.7,48.0,29.96,NW,309,0.0,0.0,96,0.00,,,0.00,weatherlink.com 1.10,2013-09-21 10:41:00,
2013-09-21 05:56:00,48.4,47.0,29.97,NW,309,0.0,0.0,96,0.00,,,0.00,weatherlink.com 1.10,2013-09-21 10:56:00,
2013-09-21 06:11:00,48.2,47.0,29.97,NW,309,0.0,0.0,96,0.00,,,0.00,weatherlink.com 1.10,2013-09-21 11:11:00,
2013-09-21 06:26:00,48.1,47.0,29.97,NW,309,0.0,0.0,96,0.00,,,0.00,weatherlink.com 1.10,2013-09-21 11:26:00,
2013-09-21 06:41:00,47.9,47.0,29.97,NW,309,0.0,0.0,96,0.00,,,0.00,weatherlink.com 1.10,2013-09-21 11:41:00,
2013-09-21 06:56:00,47.9,47.0,29.98,NW,309,0.0,0.0,97,0.00,,,0.00,weatherlink.com 1.10,2013-09-21 11:56:00,
2013-09-21 07:11:00,48.0,47.0,29.98,NW,309,0.0,0.0,97,0.00,,,0.00,weatherlink.com 1.10,2013-09-21 12:11:00,
2013-09-21 07:26:00,48.0,47.0,29.98,NW,311,0.0,0.0,96,0.00,,,0.00,weatherlink.com 1.10,2013-09-21 12:26:00,
2013-09-21 07:41:00,48.1,47.0,29.98,NW,310,0.0,0.0,97,0.00,,,0.00,weatherlink.com 1.10,2013-09-21 12:41:00,
2013-09-21 07:56:00,48.5,48.0,29.98,NW,310,0.0,0.0,97,0.00,,,0.00,weatherlink.com 1.10,2013-09-21 12:56:00,
2013-09-21 08:11:00,49.4,49.0,29.99,NW,310,0.0,0.0,97,0.00,,,0.00,weatherlink.com 1.10,2013-09-21 13:11:00,
2013-09-21 08:26:00,50.7,50.0,29.99,NW,310,0.0,0.0,97,0.00,,,0.00,weatherlink.com 1.10,2013-09-21 13:26:00,
2013-09-21 08:41:00,52.7,50.0,29.99,NW,308,0.0,0.0,90,0.00,,,0.00,weatherlink.com 1.10,2013-09-21 13:41:00,
2013-09-21 08:56:00,54.2,50.0,29.99,NW,308,0.0,0.0,86,0.00,,,0.00,weatherlink.com 1.10,2013-09-21 13:56:00,
2013-09-21 09:11:00,56.1,51.0,30.00,NW,307,0.0,0.0,83,0.00,,,0.00,weatherlink.com 1.10,2013-09-21 14:11:00,
2013-09-21 09:27:00,60.2,53.0,30.00,NW,309,0.0,0.0,77,0.00,,,0.00,weatherlink.com 1.10,2013-09-21 14:27:00,
2013-09-21 09:41:00,63.5,51.0,30.00,NNW,345,0.0,1.0,64,0.00,,,0.00,weatherlink.com 1.10,2013-09-21 14:41:00,
2013-09-21 09:57:00,66.1,53.0,30.00,West,281,0.0,0.0,64,0.00,,,0.00,weatherlink.com 1.10,2013-09-21 14:57:00,
2013-09-21 10:12:00,69.5,52.0,30.00,SW,218,0.0,0.0,54,0.00,,,0.00,weatherlink.com 1.10,2013-09-21 15:12:00,
2013-09-21 10:27:00,69.6,52.0,30.00,WSW,245,0.0,1.0,53,0.00,,,0.00,weatherlink.com 1.10,2013-09-21 15:27:00,
2013-09-21 10:42:00,70.3,48.0,30.00,SW,215,0.0,1.0,46,0.00,,,0.00,weatherlink.com 1.10,2013-09-21 15:42:00,
2013-09-21 10:57:00,69.7,48.0,30.00,SW,214,0.0,3.0,47,0.00,,,0.00,weatherlink.com 1.10,2013-09-21 15:57:00,
2013-09-21 11:12:00,68.6,48.0,30.00,SSW,201,0.0,4.0,48,0.00,,,0.00,weatherlink.com 1.10,2013-09-21 16:12:00,
2013-09-21 11:27:00,68.9,47.0,30.00,SSW,200,0.0,2.0,46,0.00,,,0.00,weatherlink.com 1.10,2013-09-21 16:27:00,
2013-09-21 11:42:00,67.8,47.0,30.00,SSW,198,1.0,1.0,48,0.00,,,0.00,weatherlink.com 1.10,2013-09-21 16:42:00,
2013-09-21 11:57:00,67.0,47.0,30.00,NW,306,2.0,2.0,49,0.00,,,0.00,weatherlink.com 1.10,2013-09-21 16:57:00,
2013-09-21 12:12:00,67.5,46.0,29.99,WNW,303,0.0,3.0,46,0.00,,,0.00,weatherlink.com 1.10,2013-09-21 17:12:00,
2013-09-21 12:27:00,69.6,48.0,29.98,South,177,0.0,2.0,47,0.00,,,0.00,weatherlink.com 1.10,2013-09-21 17:27:00,
2013-09-21 12:42:00,69.5,47.0,29.98,NW,309,0.0,4.0,45,0.00,,,0.00,weatherlink.com 1.10,2013-09-21 17:42:00,
2013-09-21 12:57:00,70.9,48.0,29.97,WNW,301,0.0,1.0,45,0.00,,,0.00,weatherlink.com 1.10,2013-09-21 17:57:00,
2013-09-21 13:12:00,73.3,49.0,29.97,WNW,297,0.0,1.0,43,0.00,,,0.00,weatherlink.com 1.10,2013-09-21 18:12:00,
2013-09-21 13:27:00,73.6,48.0,29.97,North,354,0.0,2.0,41,0.00,,,0.00,weatherlink.com 1.10,2013-09-21 18:27:00,
2013-09-21 13:42:00,74.3,48.0,29.96,NNE,19,0.0,1.0,39,0.00,,,0.00,weatherlink.com 1.10,2013-09-21 18:42:00,
2013-09-21 13:57:00,73.9,47.0,29.95,NW,304,0.0,2.0,38,0.00,,,0.00,weatherlink.com 1.10,2013-09-21 18:57:00,
2013-09-21 14:12:00,74.2,48.0,29.94,SSW,211,0.0,1.0,40,0.00,,,0.00,weatherlink.com 1.10,2013-09-21 19:12:00,
2013-09-21 14:27:00,75.4,49.0,29.93,SSW,208,0.0,1.0,39,0.00,,,0.00,weatherlink.com 1.10,2013-09-21 19:27:00,
2013-09-21 14:42:00,75.9,47.0,29.93,SE,124,0.0,3.0,36,0.00,,,0.00,weatherlink.com 1.10,2013-09-21 19:42:00,
2013-09-21 14:57:00,75.7,49.0,29.92,SE,124,0.0,0.0,39,0.00,,,0.00,weatherlink.com 1.10,2013-09-21 19:57:00,
2013-09-21 15:12:00,73.8,49.0,29.92,NW,315,3.0,3.0,41,0.00,,,0.00,weatherlink.com 1.10,2013-09-21 20:12:00,
2013-09-21 15:27:00,73.0,47.0,29.92,WNW,295,0.0,1.0,39,0.00,,,0.00,weatherlink.com 1.10,2013-09-21 20:27:00,
2013-09-21 15:42:00,72.4,47.0,29.91,WNW,301,0.0,2.0,41,0.00,,,0.00,weatherlink.com 1.10,2013-09-21 20:42:00,
2013-09-21 15:57:00,72.2,48.0,29.90,WNW,294,0.0,0.0,42,0.00,,,0.00,weatherlink.com 1.10,2013-09-21 20:57:00,
2013-09-21 16:13:00,71.9,47.0,29.90,NW,308,0.0,0.0,42,0.00,,,0.00,weatherlink.com 1.10,2013-09-21 21:13:00,
2013-09-21 16:28:00,71.8,47.0,29.90,NW,304,0.0,1.0,41,0.00,,,0.00,weatherlink.com 1.10,2013-09-21 21:28:00,
2013-09-21 16:43:00,71.4,48.0,29.89,SSW,198,0.0,1.0,44,0.00,,,0.00,weatherlink.com 1.10,2013-09-21 21:43:00,
2013-09-21 16:58:00,71.6,48.0,29.89,SSW,204,0.0,1.0,44,0.00,,,0.00,weatherlink.com 1.10,2013-09-21 21:58:00,
2013-09-21 17:13:00,71.2,48.0,29.89,SSW,204,0.0,0.0,44,0.00,,,0.00,weatherlink.com 1.10,2013-09-21 22:13:00,
2013-09-21 17:28:00,70.9,49.0,29.89,SSW,204,0.0,0.0,46,0.00,,,0.00,weatherlink.com 1.10,2013-09-21 22:28:00,
2013-09-21 17:43:00,71.1,48.0,29.88,WNW,295,0.0,1.0,44,0.00,,,0.00,weatherlink.com 1.10,2013-09-21 22:43:00,
2013-09-21 17:58:00,70.6,48.0,29.88,WNW,295,0.0,0.0,45,0.00,,,0.00,weatherlink.com 1.10,2013-09-21 22:58:00,
2013-09-21 18:13:00,69.9,49.0,29.88,WNW,295,0.0,0.0,48,0.00,,,0.00,weatherlink.com 1.10,2013-09-21 23:13:00,
2013-09-21 18:28:00,69.2,50.0,29.87,WNW,295,0.0,0.0,50,0.00,,,0.00,weatherlink.com 1.10,2013-09-21 23:28:00,
2013-09-21 18:43:00,68.5,51.0,29.87,WNW,295,0.0,0.0,53,0.00,,,0.00,weatherlink.com 1.10,2013-09-21 23:43:00,
2013-09-21 18:58:00,67.2,51.0,29.86,WNW,295,0.0,0.0,57,0.00,,,0.00,weatherlink.com 1.10,2013-09-21 23:58:00,
2013-09-21 19:13:00,65.6,53.0,29.87,WNW,295,0.0,0.0,63,0.00,,,0.00,weatherlink.com 1.10,2013-09-22 00:13:00,
2013-09-21 19:28:00,64.3,53.0,29.87,WNW,295,0.0,0.0,66,0.00,,,0.00,weatherlink.com 1.10,2013-09-22 00:28:00,
2013-09-21 19:43:00,62.9,53.0,29.86,WNW,295,0.0,0.0,70,0.00,,,0.00,weatherlink.com 1.10,2013-09-22 00:43:00,
2013-09-21 19:58:00,61.7,53.0,29.87,WNW,295,0.0,0.0,73,0.00,,,0.00,weatherlink.com 1.10,2013-09-22 00:58:00,
2013-09-21 20:12:00,60.7,52.0,29.87,WNW,295,0.0,0.0,74,0.00,,,0.00,weatherlink.com 1.10,2013-09-22 01:12:00,
2013-09-21 20:28:00,59.9,52.0,29.88,WNW,295,0.0,0.0,76,0.00,,,0.00,weatherlink.com 1.10,2013-09-22 01:28:00,
2013-09-21 20:43:00,59.5,52.0,29.88,WNW,295,0.0,0.0,77,0.00,,,0.00,weatherlink.com 1.10,2013-09-22 01:43:00,
2013-09-21 20:58:00,59.2,52.0,29.89,WNW,295,0.0,0.0,78,0.00,,,0.00,weatherlink.com 1.10,2013-09-22 01:58:00,
2013-09-21 21:13:00,59.1,52.0,29.89,WNW,295,0.0,0.0,78,0.00,,,0.00,weatherlink.com 1.10,2013-09-22 02:13:00,
2013-09-21 21:28:00,58.7,53.0,29.89,WNW,295,0.0,0.0,80,0.00,,,0.00,weatherlink.com 1.10,2013-09-22 02:28:00,
2013-09-21 21:43:00,58.4,52.0,29.89,WNW,295,0.0,0.0,80,0.00,,,0.00,weatherlink.com 1.10,2013-09-22 02:43:00,
2013-09-21 21:57:00,58.2,52.0,29.89,WNW,295,0.0,0.0,80,0.00,,,0.00,weatherlink.com 1.10,2013-09-22 02:57:00,
2013-09-21 22:13:00,57.6,52.0,29.89,WNW,295,0.0,0.0,81,0.00,,,0.00,weatherlink.com 1.10,2013-09-22 03:13:00,
2013-09-21 22:28:00,57.2,52.0,29.89,WNW,295,0.0,0.0,82,0.00,,,0.00,weatherlink.com 1.10,2013-09-22 03:28:00,
2013-09-21 22:43:00,56.7,51.0,29.89,WNW,295,0.0,0.0,82,0.00,,,0.00,weatherlink.com 1.10,2013-09-22 03:43:00,
2013-09-21 22:58:00,56.3,52.0,29.89,WNW,295,0.0,0.0,84,0.00,,,0.00,weatherlink.com 1.10,2013-09-22 03:58:00,
2013-09-21 23:13:00,56.2,52.0,29.89,WNW,295,0.0,0.0,84,0.00,,,0.00,weatherlink.com 1.10,2013-09-22 04:13:00,
2013-09-21 23:28:00,56.1,51.0,29.89,WNW,295,0.0,0.0,84,0.00,,,0.00,weatherlink.com 1.10,2013-09-22 04:28:00,
2013-09-21 23:43:00,55.9,51.0,29.89,WNW,295,0.0,0.0,84,0.00,,,0.00,weatherlink.com 1.10,2013-09-22 04:43:00,
2013-09-21 23:58:00,55.6,51.0,29.89,WNW,295,0.0,0.0,84,0.00,,,0.00,weatherlink.com 1.10,2013-09-22 04:58:00,